Location: Mt. Cuba Astronomical Observatory
(39.8100°N, 75.6300°W)
Time: 13:30:21
(UTC-04:00)

Daily predictions for brighter satellites

Satellite Brightness Start Highest point End
(mag) Time Altitude Azimuth Time Altitude Azimuth Time Altitude Azimuth
CORIOLIS 4.2 18:34:07 10° SSE 18:39:30 82° ENE 18:44:56 10° NNW
MTI 3.8 18:38:05 10° NNE 18:41:16 56° E 18:44:24 10° S
Cosmos 1727 Rocket 4.1 18:35:40 10° N 18:42:00 66° E 18:48:16 10° SSE
CZ-4 R/B 1.5 18:39:44 10° SSE 18:43:56 88° ENE 18:48:07 10° NNW
Abrixas 2.6 18:42:10 10° SSW 18:44:08 32° SE 18:46:07 10° ENE
Delta 2 Rocket 3.9 18:41:40 10° WSW 18:45:31 45° S 18:49:00 10° ESE
Iridium 4 Rocket 4.5 18:40:41 10° SE 18:45:32 31° E 18:50:35 10° NNE
Cosmos 2098 Rocket 4.3 18:43:44 10° SE 18:47:37 27° E 18:52:19 10° NNE
Cosmos 2221 3.1 18:43:44 10° SSE 18:47:38 34° E 18:51:35 10° NNE
IRS-1A Rocket 4.4 18:42:58 10° SSE 18:48:50 86° ENE 18:54:47 10° NNW
GP-B 3.1 18:44:24 10° N 18:48:51 71° E 18:53:15 10° S
SKYMED 2 3.8 18:45:08 10° NNE 18:49:20 47° E 18:53:30 10° S
CZ-4 R/B 4.4 18:45:37 10° SSE 18:49:41 62° ENE 18:53:48 10° N
Cosmos 1743 Rocket 3.6 18:46:04 10° N 18:50:29 86° W 18:54:54 10° S
Cosmos 44 3.2 18:48:38 10° SSW 18:52:52 51° ESE 18:57:04 10° NE
Cosmos 921 Rocket 3.0 18:49:39 10° N 18:54:04 60° ENE 18:58:21 10° SSE
ERS-2 2.4 18:52:42 10° S 18:56:22 72° WSW 19:00:05 10° NNW
Cosmos 1842 Rocket 3.9 18:54:07 10° SSW 18:58:35 74° W 19:03:02 10° N
Cosmos 2322 3.7 18:53:04 10° NNW 18:58:50 79° ENE 19:04:32 10° SSE
EO 1 Del DPAF 3.2 18:55:35 10° NNE 18:59:26 78° ESE 19:03:16 10° S
Abrixas rocket 4.3 18:58:26 10° NW 19:00:46 18° N 19:03:07 10° NE
SMAP 4.3 18:58:28 10° S 19:02:55 47° W 19:07:25 10° NNW
Cosmos 1726 2.9 19:02:24 10° SSE 19:05:38 29° E 19:08:53 10° NNE
Meteor 2-1 Rocket 4.4 19:02:10 10° S 19:07:57 83° W 19:13:54 10° N
Cosmos 2219 Rocket 2.9 19:03:19 10° N 19:08:21 33° ENE 19:13:21 10° ESE
SL-24 R/B - RUBIN 2 4.1 19:03:46 10° NW 19:08:31 65° WSW 19:12:51 10° SSE
Cosmos 1315 Rocket 2.8 19:05:17 10° N 19:09:23 80° E 19:13:30 10° SSE
Cosmos 1500 Rocket 4.0 19:06:39 10° NNW 19:10:59 66° W 19:15:14 10° S
Cosmos 1048 Rocket 3.9 19:06:44 10° S 19:11:48 65° ESE 19:16:52 10° NNE
Cosmos 158 Rocket 3.9 19:07:53 10° SSW 19:12:55 82° ESE 19:18:08 10° NNE
APEX 2.5 19:11:59 10° SSW 19:15:13 83° WNW 19:18:01 10° NNE
NOAA 12 4.1 19:10:17 10° SSE 19:15:29 59° ENE 19:20:43 10° N
DELTA 2 R/B (1) 4.0 19:10:41 10° W 19:16:10 60° SSW 19:21:07 13° ESE
METEOR-M 4.2 19:12:02 10° SSE 19:17:23 88° WSW 19:22:45 10° NNW
Cosmos 1420 Rocket 4.0 19:13:37 10° NNW 19:18:58 90° WSW 19:24:14 10° SSE
FREGAT/IRIS 4.2 19:24:03 20° NE 19:24:03 20° NE 19:25:30 10° NNE
CZ-4C R/B 2.0 19:17:57 10° SSW 19:23:02 74° ESE 19:28:52 10° NE
NOSS 0 Rocket 4.5 19:17:57 10° N 19:23:35 36° ENE 19:27:35 18° ESE
Cosmos 44 Rocket 3.3 19:20:30 10° SW 19:25:12 79° WNW 19:29:56 10° NNE
SJ-6B 3.9 19:30:48 23° NE 19:30:48 23° NE 19:33:11 10° NNE
Resurs 01 Rocket 3.8 19:33:44 11° NNE 19:33:44 11° NNE 19:34:05 10° NNE
Cosmos 2333 4.2 19:28:58 10° NNW 19:34:43 82° ENE 19:40:29 10° SSE
Thor Agena Rocket 3.6 19:29:56 10° NNE 19:34:55 53° E 19:39:50 10° S
Sich 1 3.3 19:31:57 10° N 19:36:10 45° E 19:40:24 10° SSE
Cosmos 1908 4.4 19:32:27 10° SSW 19:36:12 45° W 19:39:59 10° N
PSLV R/B 3.9 19:33:36 10° SW 19:36:28 34° SSE 19:36:41 33° SE
COSMO-SKYMED 1 3.6 19:33:10 10° N 19:37:22 48° WNW 19:41:32 10° SSW
Cosmos 1535 Rocket 4.3 19:35:33 10° S 19:41:39 75° E 19:47:45 10° N
Cosmos 2237 Rocket 2.8 19:38:55 10° N 19:44:07 35° ENE 19:45:24 31° E
Atlas Centaur 2 3.9 19:42:16 10° SW 19:45:17 17° SSW 19:48:43 10° SSE
H-2A R/B 2.8 19:43:54 32° SE 19:45:24 52° ENE 19:49:13 10° N
USA 267 4.0 19:45:00 27° E 19:46:49 32° SE 19:52:30 10° S
Gbstr 26 Del rocket 3.6 19:42:26 10° NW 19:47:33 75° NE 19:50:40 30° ESE
Cosmos 1331 Rocket 4.3 19:42:48 10° N 19:47:45 41° ENE 19:48:57 36° E
Cosmos 1805 Rocket 3.6 19:45:33 10° N 19:49:58 80° W 19:54:22 10° S
Cosmos 2227 Rocket 2.5 19:45:15 10° S 19:50:29 41° ESE 19:52:07 33° ENE
SL-16 R/B 3.7 19:51:46 10° N 19:54:46 19° NE 19:54:46 19° NE
Cosmos 1666 Rocket 3.3 19:54:52 10° N 19:59:13 82° E 20:02:43 15° S
ALOS 3.1 19:57:11 10° S 20:01:42 50° W 20:06:16 10° NNW
Cosmos 1300 2.8 19:59:10 10° SSW 20:02:59 75° W 20:06:49 10° N
Cosmos 1633 Rocket 2.9 20:00:24 10° N 20:04:50 77° E 20:06:13 43° SSE
Cosmos 1980 3.7 20:02:49 10° NNW 20:08:24 58° ENE 20:09:17 52° E
Meteor 2-3 Rocket 4.4 20:03:31 10° N 20:07:50 37° NE 20:07:50 37° NE
Cosmos 1934 Rocket 4.2 20:05:35 10° SSW 20:11:56 75° W 20:18:20 10° N
Aureole 2 Rocket 3.7 20:10:51 10° NNW 20:14:40 48° WSW 20:16:42 25° SSW
COSMOS 2428 3.8 20:10:20 10° NW 20:15:40 43° WSW 20:20:59 10° S
Cosmos 2333 Rocket 2.2 20:13:04 10° NNW 20:18:50 81° WSW 20:21:36 32° SSE
Cosmos 2219 4.4 20:14:35 10° SW 20:20:00 42° WNW 20:25:26 10° N
Hubble Space Telescope 3.3 20:18:51 10° SSW 20:19:41 12° SSW 20:19:41 12° SSW
BREEZE-M DEB (TANK) 3.4 20:10:50 10° WNW 20:25:33 70° NNE 20:26:20 62° ENE
BREEZE-M R/B 4.5 20:24:01 10° WSW 20:25:04 23° WSW 20:25:04 23° WSW
Cosmos 2297 Rocket 2.2 20:22:13 10° SSW 20:27:02 61° SSE 20:27:02 61° SSE
Cosmos 494 Rocket 4.1 20:23:40 10° SSW 20:28:45 73° WNW 20:30:46 37° N
Cosmos 1110 Rocket 4.3 20:30:07 10° NNW 20:35:23 64° WSW 20:36:35 49° SSW
Cosmos 2082 3.8 20:31:33 10° SSW 20:36:17 62° S 20:36:17 62° S
USA 32 4.3 20:32:26 10° N 20:36:35 57° N 20:36:35 57° N
BREEZE-M DEB (TANK) 3.7 20:34:51 10° WNW 20:41:01 43° NNW 20:41:01 43° NNW
Cosmos 1605 Rocket 4.4 20:40:23 10° SSW 20:46:23 58° W 20:52:23 10° N
Cosmos 1153 Rocket 4.4 20:44:15 10° S 20:50:23 81° W 20:56:37 10° N
Cosmos 2219 Rocket 3.6 20:47:15 10° NW 20:52:14 34° WSW 20:55:32 19° SSW
Cosmos 2251 Rocket 4.4 20:52:41 10° SSW 20:56:38 45° WSW 20:56:38 45° WSW
Resurs 01 Rocket 4.3 21:11:19 14° NNW 21:11:19 14° NNW 21:11:56 10° NNW
CZ-4C R/B 4.3 21:08:11 10° W 21:12:18 21° NW 21:15:06 16° N
Cosmos 2237 Rocket 3.8 21:23:04 10° NW 21:27:17 31° W 21:27:17 31° W
USA 267 4.1 21:32:24 42° WSW 21:32:24 42° WSW 21:36:34 10° WSW
Cosmos 2227 Rocket 4.0 21:29:47 10° WSW 21:34:03 28° WNW 21:34:03 28° WNW
SL-16 R/B 4.3 21:34:49 10° NNW 21:36:39 21° NNW 21:36:39 21° NNW
CZ-3A R/B 4.3 21:46:06 10° NW 21:56:32 56° NW 21:56:32 56° NW
